Time,TemperatureF,DewpointF,PressureIn,WindDirection,WindDirectionDegrees,WindSpeedMPH,WindSpeedGustMPH,Humidity,HourlyPrecipIn,Conditions,Clouds,dailyrainin,SoftwareType,DateUTC
2013-02-09 00:00:00,20.5,18.0,29.82,West,261,2.0,3.0,90,0.00,,,0.00,WeatherCatV1.00B22,2013-02-09 05:00:00,
2013-02-09 00:05:00,20.5,18.0,29.82,West,263,5.0,5.0,90,0.00,,,0.00,WeatherCatV1.00B22,2013-02-09 05:05:00,
2013-02-09 00:10:00,20.5,18.3,29.82,WSW,256,1.0,5.0,91,0.00,,,0.00,WeatherCatV1.00B22,2013-02-09 05:10:00,
2013-02-09 00:15:00,20.5,18.3,29.82,West,278,2.0,5.0,91,0.00,,,0.00,WeatherCatV1.00B22,2013-02-09 05:15:00,
2013-02-09 00:20:00,20.5,18.3,29.83,SSW,202,2.0,3.0,91,0.00,,,0.00,WeatherCatV1.00B22,2013-02-09 05:20:00,
2013-02-09 00:25:00,20.5,18.3,29.83,WNW,290,2.0,3.0,91,0.00,,,0.00,WeatherCatV1.00B22,2013-02-09 05:25:00,
2013-02-09 00:30:00,20.6,18.4,29.83,NW,323,3.0,7.0,91,0.00,,,0.00,WeatherCatV1.00B22,2013-02-09 05:30:00,
2013-02-09 00:35:00,20.5,18.0,29.83,NNW,342,0.0,4.0,90,0.00,,,0.00,WeatherCatV1.00B22,2013-02-09 05:35:00,
2013-02-09 00:40:00,20.5,18.0,29.84,WNW,298,1.0,2.0,90,0.00,,,0.00,WeatherCatV1.00B22,2013-02-09 05:40:00,
2013-02-09 00:45:00,20.5,18.3,29.84,WNW,293,0.0,3.0,91,0.00,,,0.00,WeatherCatV1.00B22,2013-02-09 05:45:00,
2013-02-09 00:50:00,20.5,18.3,29.84,NNE,31,2.0,2.0,91,0.00,,,0.00,WeatherCatV1.00B22,2013-02-09 05:50:00,
2013-02-09 00:55:00,20.6,18.4,29.84,NNE,31,0.0,1.0,91,0.00,,,0.00,WeatherCatV1.00B22,2013-02-09 05:55:00,
2013-02-09 01:00:00,20.6,18.4,29.83,NW,319,0.0,3.0,91,0.00,,,0.00,WeatherCatV1.00B22,2013-02-09 06:00:00,
2013-02-09 01:05:00,20.6,18.4,29.83,NW,319,0.0,1.0,91,0.00,,,0.00,WeatherCatV1.00B22,2013-02-09 06:05:00,
2013-02-09 01:10:00,20.7,18.8,29.83,NW,319,1.0,2.0,92,0.00,,,0.00,WeatherCatV1.00B22,2013-02-09 06:10:00,
2013-02-09 01:15:00,20.7,18.8,29.83,NW,319,0.0,0.0,92,0.00,,,0.00,WeatherCatV1.00B22,2013-02-09 06:15:00,
2013-02-09 01:20:00,20.8,18.9,29.83,WNW,300,1.0,4.0,92,0.00,,,0.00,WeatherCatV1.00B22,2013-02-09 06:20:00,
2013-02-09 01:25:00,20.9,19.0,29.83,WNW,300,0.0,0.0,92,0.00,,,0.00,WeatherCatV1.00B22,2013-02-09 06:25:00,
2013-02-09 01:30:00,21.0,19.0,29.83,NW,304,1.0,3.0,92,0.00,,,0.00,WeatherCatV1.00B22,2013-02-09 06:30:00,
2013-02-09 01:35:00,21.0,19.0,29.83,West,280,0.0,2.0,92,0.00,,,0.00,WeatherCatV1.00B22,2013-02-09 06:35:00,
2013-02-09 01:40:00,21.1,19.1,29.84,NW,314,0.0,3.0,92,0.00,,,0.00,WeatherCatV1.00B22,2013-02-09 06:40:00,
2013-02-09 01:45:00,21.1,19.1,29.83,WNW,284,2.0,5.0,92,0.00,,,0.00,WeatherCatV1.00B22,2013-02-09 06:45:00,
2013-02-09 01:50:00,21.2,19.2,29.83,NW,308,3.0,4.0,92,0.00,,,0.00,WeatherCatV1.00B22,2013-02-09 06:50:00,
2013-02-09 01:55:00,21.2,19.0,29.83,NW,313,1.0,2.0,91,0.00,,,0.00,WeatherCatV1.00B22,2013-02-09 06:55:00,
2013-02-09 02:00:00,21.1,18.9,29.83,West,263,2.0,5.0,91,0.00,,,0.00,WeatherCatV1.00B22,2013-02-09 07:00:00,
2013-02-09 02:05:00,21.0,18.8,29.84,WNW,290,1.0,4.0,91,0.00,,,0.00,WeatherCatV1.00B22,2013-02-09 07:05:00,
2013-02-09 02:10:00,20.9,18.7,29.84,WNW,284,1.0,2.0,91,0.00,,,0.00,WeatherCatV1.00B22,2013-02-09 07:10:00,
2013-02-09 02:15:00,20.8,18.6,29.83,WNW,284,2.0,2.0,91,0.00,,,0.00,WeatherCatV1.00B22,2013-02-09 07:15:00,
2013-02-09 02:20:00,20.8,18.6,29.83,West,281,0.0,2.0,91,0.00,,,0.00,WeatherCatV1.00B22,2013-02-09 07:20:00,
2013-02-09 02:25:00,20.6,18.4,29.84,North,355,2.0,5.0,91,0.00,,,0.00,WeatherCatV1.00B22,2013-02-09 07:25:00,
2013-02-09 02:30:00,20.5,18.3,29.84,West,275,1.0,3.0,91,0.00,,,0.00,WeatherCatV1.00B22,2013-02-09 07:30:00,
2013-02-09 02:35:00,20.3,17.8,29.84,SW,221,1.0,5.0,90,0.00,,,0.00,WeatherCatV1.00B22,2013-02-09 07:35:00,
2013-02-09 02:40:00,20.0,17.5,29.84,West,268,2.0,4.0,90,0.00,,,0.00,WeatherCatV1.00B22,2013-02-09 07:40:00,
2013-02-09 02:45:00,19.8,17.4,29.85,West,281,1.0,4.0,90,0.00,,,0.00,WeatherCatV1.00B22,2013-02-09 07:45:00,
2013-02-09 02:50:00,19.5,16.8,29.85,West,267,1.0,1.0,89,0.00,,,0.00,WeatherCatV1.00B22,2013-02-09 07:50:00,
2013-02-09 02:55:00,19.3,16.9,29.85,West,263,2.0,3.0,90,0.00,,,0.00,WeatherCatV1.00B22,2013-02-09 07:55:00,
2013-02-09 03:00:00,19.1,16.7,29.85,West,273,7.0,7.0,90,0.00,,,0.00,WeatherCatV1.00B22,2013-02-09 08:00:00,
2013-02-09 03:05:00,18.9,16.2,29.85,WNW,283,1.0,5.0,89,0.00,,,0.00,WeatherCatV1.00B22,2013-02-09 08:05:00,
2013-02-09 03:10:00,18.7,16.0,29.85,West,265,1.0,3.0,89,0.00,,,0.00,WeatherCatV1.00B22,2013-02-09 08:10:00,
2013-02-09 03:15:00,18.6,15.9,29.85,West,273,2.0,4.0,89,0.00,,,0.00,WeatherCatV1.00B22,2013-02-09 08:15:00,
2013-02-09 03:20:00,18.4,15.7,29.85,WSW,256,1.0,4.0,89,0.00,,,0.00,WeatherCatV1.00B22,2013-02-09 08:20:00,
2013-02-09 03:25:00,18.3,15.6,29.85,West,266,2.0,6.0,89,0.00,,,0.00,WeatherCatV1.00B22,2013-02-09 08:25:00,
2013-02-09 03:30:00,18.1,15.4,29.85,West,280,2.0,4.0,89,0.00,,,0.00,WeatherCatV1.00B22,2013-02-09 08:30:00,
2013-02-09 03:35:00,18.1,15.4,29.85,West,273,2.0,2.0,89,0.00,,,0.00,WeatherCatV1.00B22,2013-02-09 08:35:00,
2013-02-09 03:40:00,18.0,15.6,29.85,NNW,329,2.0,4.0,90,0.00,,,0.00,WeatherCatV1.00B22,2013-02-09 08:40:00,
2013-02-09 03:45:00,17.9,15.5,29.85,WNW,282,1.0,6.0,90,0.00,,,0.00,WeatherCatV1.00B22,2013-02-09 08:45:00,
2013-02-09 03:50:00,17.8,15.4,29.85,West,270,2.0,6.0,90,0.00,,,0.00,WeatherCatV1.00B22,2013-02-09 08:50:00,
2013-02-09 03:55:00,17.7,15.3,29.85,West,275,1.0,3.0,90,0.00,,,0.00,WeatherCatV1.00B22,2013-02-09 08:55:00,
2013-02-09 04:00:00,17.6,15.2,29.86,West,269,1.0,4.0,90,0.00,,,0.00,WeatherCatV1.00B22,2013-02-09 09:00:00,
2013-02-09 04:05:00,17.4,15.0,29.86,West,261,2.0,3.0,90,0.00,,,0.00,WeatherCatV1.00B22,2013-02-09 09:05:00,
2013-02-09 04:10:00,17.3,14.9,29.86,WSW,254,2.0,5.0,90,0.00,,,0.00,WeatherCatV1.00B22,2013-02-09 09:10:00,
2013-02-09 04:15:00,17.2,14.8,29.86,West,265,2.0,3.0,90,0.00,,,0.00,WeatherCatV1.00B22,2013-02-09 09:15:00,
2013-02-09 04:20:00,17.0,14.3,29.86,West,278,2.0,6.0,89,0.00,,,0.00,WeatherCatV1.00B22,2013-02-09 09:20:00,
2013-02-09 04:25:00,16.8,14.4,29.86,North,0,2.0,6.0,90,0.00,,,0.00,WeatherCatV1.00B22,2013-02-09 09:25:00,
2013-02-09 04:30:00,16.7,14.0,29.86,NW,324,2.0,5.0,89,0.00,,,0.00,WeatherCatV1.00B22,2013-02-09 09:30:00,
2013-02-09 04:35:00,16.6,13.9,29.87,West,259,1.0,1.0,89,0.00,,,0.00,WeatherCatV1.00B22,2013-02-09 09:35:00,
2013-02-09 04:40:00,16.5,13.8,29.87,West,273,2.0,2.0,89,0.00,,,0.00,WeatherCatV1.00B22,2013-02-09 09:40:00,
2013-02-09 04:45:00,16.3,13.6,29.87,WSW,250,2.0,5.0,89,0.00,,,0.00,WeatherCatV1.00B22,2013-02-09 09:45:00,
2013-02-09 04:50:00,16.1,13.2,29.87,WSW,249,3.0,5.0,88,0.00,,,0.00,WeatherCatV1.00B22,2013-02-09 09:50:00,
2013-02-09 04:55:00,15.9,13.0,29.87,WSW,248,2.0,3.0,88,0.00,,,0.00,WeatherCatV1.00B22,2013-02-09 09:55:00,
2013-02-09 05:00:00,15.8,12.9,29.87,West,274,3.0,5.0,88,0.00,,,0.00,WeatherCatV1.00B22,2013-02-09 10:00:00,
2013-02-09 05:05:00,15.6,12.7,29.87,West,275,2.0,5.0,88,0.00,,,0.00,WeatherCatV1.00B22,2013-02-09 10:05:00,
2013-02-09 05:10:00,15.4,12.2,29.88,ENE,62,5.0,7.0,87,0.00,,,0.00,WeatherCatV1.00B22,2013-02-09 10:10:00,
2013-02-09 05:15:00,15.2,12.0,29.88,SW,221,3.0,10.0,87,0.00,,,0.00,WeatherCatV1.00B22,2013-02-09 10:15:00,
2013-02-09 05:20:00,14.9,11.5,29.88,WNW,290,4.0,4.0,86,0.00,,,0.00,WeatherCatV1.00B22,2013-02-09 10:20:00,
2013-02-09 05:25:00,14.8,11.4,29.89,WNW,290,1.0,3.0,86,0.00,,,0.00,WeatherCatV1.00B22,2013-02-09 10:25:00,
2013-02-09 05:30:00,14.6,11.2,29.88,WNW,283,3.0,6.0,86,0.00,,,0.00,WeatherCatV1.00B22,2013-02-09 10:30:00,
2013-02-09 05:35:00,14.5,11.1,29.89,North,5,1.0,5.0,86,0.00,,,0.00,WeatherCatV1.00B22,2013-02-09 10:35:00,
2013-02-09 05:40:00,14.4,11.0,29.89,SW,233,4.0,6.0,86,0.00,,,0.00,WeatherCatV1.00B22,2013-02-09 10:40:00,
2013-02-09 05:45:00,14.4,10.7,29.89,West,265,0.0,3.0,85,0.00,,,0.00,WeatherCatV1.00B22,2013-02-09 10:45:00,
2013-02-09 05:50:00,14.3,10.6,29.89,SW,220,3.0,4.0,85,0.00,,,0.00,WeatherCatV1.00B22,2013-02-09 10:50:00,
2013-02-09 05:55:00,14.2,10.5,29.90,WSW,246,5.0,5.0,85,0.00,,,0.00,WeatherCatV1.00B22,2013-02-09 10:55:00,
2013-02-09 06:00:00,14.0,10.3,29.90,West,259,2.0,6.0,85,0.00,,,0.00,WeatherCatV1.00B22,2013-02-09 11:00:00,
2013-02-09 06:05:00,13.9,10.0,29.90,WSW,257,3.0,4.0,84,0.00,,,0.00,WeatherCatV1.00B22,2013-02-09 11:05:00,
2013-02-09 06:10:00,13.8,9.9,29.90,West,264,3.0,3.0,84,0.00,,,0.00,WeatherCatV1.00B22,2013-02-09 11:10:00,
2013-02-09 06:15:00,13.6,9.7,29.91,NNW,328,4.0,5.0,84,0.00,,,0.00,WeatherCatV1.00B22,2013-02-09 11:15:00,
2013-02-09 06:20:00,13.6,9.4,29.91,WSW,242,1.0,5.0,83,0.00,,,0.00,WeatherCatV1.00B22,2013-02-09 11:20:00,
2013-02-09 06:25:00,13.6,9.4,29.91,West,268,3.0,3.0,83,0.00,,,0.00,WeatherCatV1.00B22,2013-02-09 11:25:00,
2013-02-09 06:30:00,13.6,9.4,29.91,West,268,3.0,3.0,83,0.00,,,0.00,WeatherCatV1.00B22,2013-02-09 11:30:00,
2013-02-09 06:35:00,-999.0,-99.9,29.92,North,-999,-999.0,0.0,-999,0.00,,,0.00,WeatherCatV1.00B22,2013-02-09 11:35:00,
2013-02-09 06:40:00,-999.0,-99.9,29.92,North,-999,-999.0,0.0,-999,0.00,,,0.00,WeatherCatV1.00B22,2013-02-09 11:40:00,
2013-02-09 06:45:00,-999.0,-99.9,29.92,North,-999,-999.0,0.0,-999,0.00,,,0.00,WeatherCatV1.00B22,2013-02-09 11:45:00,
2013-02-09 06:50:00,-999.0,-99.9,29.92,North,-999,-999.0,0.0,-999,0.00,,,0.00,WeatherCatV1.00B22,2013-02-09 11:50:00,
2013-02-09 06:55:00,-999.0,-99.9,29.92,North,-999,-999.0,0.0,-999,0.00,,,0.00,WeatherCatV1.00B22,2013-02-09 11:55:00,
2013-02-09 07:00:00,-999.0,-99.9,29.92,North,-999,-999.0,0.0,-999,0.00,,,0.00,WeatherCatV1.00B22,2013-02-09 12:00:00,
2013-02-09 07:05:00,-999.0,-99.9,29.93,North,-999,-999.0,0.0,-999,0.00,,,0.00,WeatherCatV1.00B22,2013-02-09 12:05:00,
2013-02-09 07:10:00,-999.0,-99.9,29.93,North,-999,-999.0,0.0,-999,0.00,,,0.00,WeatherCatV1.00B22,2013-02-09 12:10:00,
2013-02-09 07:15:00,-999.0,-99.9,29.93,North,-999,-999.0,0.0,-999,0.00,,,0.00,WeatherCatV1.00B22,2013-02-09 12:15:00,
2013-02-09 07:20:00,-999.0,-99.9,29.93,North,-999,-999.0,0.0,-999,0.00,,,0.00,WeatherCatV1.00B22,2013-02-09 12:20:00,
2013-02-09 07:25:00,12.5,7.2,29.94,SW,223,3.0,4.0,79,0.00,,,0.00,WeatherCatV1.00B22,2013-02-09 12:25:00,
2013-02-09 07:30:00,12.3,7.1,29.94,SSW,211,1.0,5.0,79,0.00,,,0.00,WeatherCatV1.00B22,2013-02-09 12:30:00,
2013-02-09 07:35:00,12.2,7.0,29.94,SW,231,8.0,8.0,79,0.00,,,0.00,WeatherCatV1.00B22,2013-02-09 12:35:00,
2013-02-09 07:40:00,12.2,7.0,29.95,SSW,193,2.0,3.0,79,0.00,,,0.00,WeatherCatV1.00B22,2013-02-09 12:40:00,
2013-02-09 07:45:00,12.2,7.0,29.95,West,267,4.0,8.0,79,0.00,,,0.00,WeatherCatV1.00B22,2013-02-09 12:45:00,
2013-02-09 07:50:00,12.1,7.1,29.95,WNW,295,2.0,6.0,80,0.00,,,0.00,WeatherCatV1.00B22,2013-02-09 12:50:00,
2013-02-09 07:55:00,12.2,7.0,29.96,West,278,5.0,8.0,79,0.00,,,0.00,WeatherCatV1.00B22,2013-02-09 12:55:00,
2013-02-09 08:00:00,12.1,7.1,29.97,West,269,3.0,6.0,80,0.00,,,0.00,WeatherCatV1.00B22,2013-02-09 13:00:00,
2013-02-09 08:05:00,12.1,7.1,29.97,WNW,302,2.0,5.0,80,0.00,,,0.00,WeatherCatV1.00B22,2013-02-09 13:05:00,
2013-02-09 08:10:00,11.9,6.9,29.98,WNW,303,5.0,8.0,80,0.00,,,0.00,WeatherCatV1.00B22,2013-02-09 13:10:00,
2013-02-09 08:15:00,11.9,6.7,29.98,WSW,241,1.0,5.0,79,0.00,,,0.00,WeatherCatV1.00B22,2013-02-09 13:15:00,
2013-02-09 08:20:00,11.7,6.5,29.98,NNW,338,6.0,10.0,79,0.00,,,0.00,WeatherCatV1.00B22,2013-02-09 13:20:00,
2013-02-09 08:25:00,11.6,6.1,29.98,NNW,348,6.0,9.0,78,0.00,,,0.00,WeatherCatV1.00B22,2013-02-09 13:25:00,
2013-02-09 08:30:00,11.6,6.1,29.99,NW,319,7.0,7.0,78,0.00,,,0.00,WeatherCatV1.00B22,2013-02-09 13:30:00,
2013-02-09 08:35:00,11.6,6.1,29.99,NNW,331,5.0,8.0,78,0.00,,,0.00,WeatherCatV1.00B22,2013-02-09 13:35:00,
2013-02-09 08:40:00,11.5,5.7,29.99,NW,325,4.0,13.0,77,0.00,,,0.00,WeatherCatV1.00B22,2013-02-09 13:40:00,
2013-02-09 08:45:00,11.6,6.1,29.99,SSW,212,2.0,6.0,78,0.00,,,0.00,WeatherCatV1.00B22,2013-02-09 13:45:00,
2013-02-09 08:50:00,11.6,5.8,29.99,NW,319,6.0,7.0,77,0.00,,,0.00,WeatherCatV1.00B22,2013-02-09 13:50:00,
2013-02-09 08:55:00,11.6,5.8,30.00,WSW,256,4.0,8.0,77,0.00,,,0.00,WeatherCatV1.00B22,2013-02-09 13:55:00,
2013-02-09 09:00:00,11.7,5.6,30.00,NW,316,7.0,8.0,76,0.00,,,0.00,WeatherCatV1.00B22,2013-02-09 14:00:00,
2013-02-09 09:05:00,11.8,5.7,30.01,ENE,67,4.0,6.0,76,0.00,,,0.00,WeatherCatV1.00B22,2013-02-09 14:05:00,
2013-02-09 09:10:00,11.7,5.6,30.01,ENE,61,7.0,7.0,76,0.00,,,0.00,WeatherCatV1.00B22,2013-02-09 14:10:00,
2013-02-09 09:15:00,11.8,5.7,30.01,West,269,7.0,7.0,76,0.00,,,0.00,WeatherCatV1.00B22,2013-02-09 14:15:00,
2013-02-09 09:20:00,11.8,5.4,30.02,East,82,3.0,13.0,75,0.00,,,0.00,WeatherCatV1.00B22,2013-02-09 14:20:00,
2013-02-09 09:25:00,11.9,5.8,30.02,North,5,10.0,10.0,76,0.00,,,0.00,WeatherCatV1.00B22,2013-02-09 14:25:00,
2013-02-09 09:30:00,11.9,5.5,30.02,NE,53,1.0,5.0,75,0.00,,,0.00,WeatherCatV1.00B22,2013-02-09 14:30:00,
2013-02-09 09:35:00,12.0,5.6,30.02,SW,224,5.0,6.0,75,0.00,,,0.00,WeatherCatV1.00B22,2013-02-09 14:35:00,
2013-02-09 09:40:00,12.0,5.6,30.02,SSW,208,0.0,5.0,75,0.00,,,0.00,WeatherCatV1.00B22,2013-02-09 14:40:00,
2013-02-09 09:45:00,12.1,5.4,30.02,SE,139,6.0,8.0,74,0.00,,,0.00,WeatherCatV1.00B22,2013-02-09 14:45:00,
2013-02-09 09:50:00,12.2,5.8,30.03,NNW,341,2.0,11.0,75,0.00,,,0.00,WeatherCatV1.00B22,2013-02-09 14:50:00,
2013-02-09 09:55:00,12.2,5.5,30.03,WNW,292,2.0,5.0,74,0.00,,,0.00,WeatherCatV1.00B22,2013-02-09 14:55:00,
2013-02-09 10:00:00,12.3,5.6,30.03,NNW,346,6.0,9.0,74,0.00,,,0.00,WeatherCatV1.00B22,2013-02-09 15:00:00,
2013-02-09 10:05:00,12.4,5.7,30.04,WNW,290,4.0,12.0,74,0.00,,,0.00,WeatherCatV1.00B22,2013-02-09 15:05:00,
2013-02-09 10:10:00,12.4,5.4,30.04,SW,226,5.0,8.0,73,0.00,,,0.00,WeatherCatV1.00B22,2013-02-09 15:10:00,
2013-02-09 10:15:00,12.5,5.8,30.04,West,263,3.0,6.0,74,0.00,,,0.00,WeatherCatV1.00B22,2013-02-09 15:15:00,
2013-02-09 10:20:00,12.6,5.6,30.04,NW,321,6.0,11.0,73,0.00,,,0.00,WeatherCatV1.00B22,2013-02-09 15:20:00,
2013-02-09 10:25:00,12.5,5.5,30.04,WNW,298,2.0,10.0,73,0.00,,,0.00,WeatherCatV1.00B22,2013-02-09 15:25:00,
2013-02-09 10:30:00,12.5,5.5,30.05,WNW,298,5.0,7.0,73,0.00,,,0.00,WeatherCatV1.00B22,2013-02-09 15:30:00,
2013-02-09 10:35:00,12.5,5.5,30.05,West,278,3.0,8.0,73,0.00,,,0.00,WeatherCatV1.00B22,2013-02-09 15:35:00,
2013-02-09 10:40:00,12.6,5.3,30.06,NW,311,2.0,9.0,72,0.00,,,0.00,WeatherCatV1.00B22,2013-02-09 15:40:00,
2013-02-09 10:45:00,12.8,5.8,30.05,North,11,8.0,8.0,73,0.00,,,0.00,WeatherCatV1.00B22,2013-02-09 15:45:00,
2013-02-09 10:50:00,12.6,5.6,30.06,NW,315,2.0,7.0,73,0.00,,,0.00,WeatherCatV1.00B22,2013-02-09 15:50:00,
2013-02-09 10:55:00,12.7,5.7,30.06,ESE,111,5.0,6.0,73,0.00,,,0.00,WeatherCatV1.00B22,2013-02-09 15:55:00,
2013-02-09 11:00:00,12.8,5.8,30.06,NNE,15,2.0,6.0,73,0.00,,,0.00,WeatherCatV1.00B22,2013-02-09 16:00:00,
2013-02-09 11:05:00,12.9,5.6,30.06,North,355,4.0,10.0,72,0.00,,,0.00,WeatherCatV1.00B22,2013-02-09 16:05:00,
2013-02-09 11:10:00,12.9,5.9,30.06,North,355,2.0,9.0,73,0.00,,,0.00,WeatherCatV1.00B22,2013-02-09 16:10:00,
2013-02-09 11:15:00,13.0,6.0,30.07,WNW,282,3.0,7.0,73,0.00,,,0.00,WeatherCatV1.00B22,2013-02-09 16:15:00,
2013-02-09 11:20:00,13.1,5.8,30.07,NNW,331,3.0,7.0,72,0.00,,,0.00,WeatherCatV1.00B22,2013-02-09 16:20:00,
2013-02-09 11:25:00,13.3,5.7,30.06,WNW,295,3.0,9.0,71,0.00,,,0.00,WeatherCatV1.00B22,2013-02-09 16:25:00,
2013-02-09 11:30:00,13.5,6.5,30.07,West,277,3.0,7.0,73,0.00,,,0.00,WeatherCatV1.00B22,2013-02-09 16:30:00,
2013-02-09 11:35:00,13.7,6.4,30.06,WNW,288,5.0,8.0,72,0.00,,,0.00,WeatherCatV1.00B22,2013-02-09 16:35:00,
2013-02-09 11:40:00,13.6,5.7,30.07,WNW,282,2.0,7.0,70,0.00,,,0.00,WeatherCatV1.00B22,2013-02-09 16:40:00,
2013-02-09 11:45:00,13.6,5.4,30.07,West,273,3.0,11.0,69,0.00,,,0.00,WeatherCatV1.00B22,2013-02-09 16:45:00,
2013-02-09 11:50:00,13.6,5.4,30.07,WNW,300,3.0,9.0,69,0.00,,,0.00,WeatherCatV1.00B22,2013-02-09 16:50:00,
2013-02-09 11:55:00,13.7,5.8,30.08,WSW,242,4.0,7.0,70,0.00,,,0.00,WeatherCatV1.00B22,2013-02-09 16:55:00,
2013-02-09 12:00:00,13.9,5.6,30.08,SW,225,2.0,10.0,69,0.00,,,0.00,WeatherCatV1.00B22,2013-02-09 17:00:00,
2013-02-09 12:05:00,14.4,6.4,30.08,NNW,329,3.0,8.0,70,0.00,,,0.00,WeatherCatV1.00B22,2013-02-09 17:05:00,
2013-02-09 12:10:00,14.8,7.1,30.08,NW,317,4.0,5.0,71,0.00,,,0.00,WeatherCatV1.00B22,2013-02-09 17:10:00,
2013-02-09 12:15:00,14.8,6.8,30.08,NW,306,3.0,5.0,70,0.00,,,0.00,WeatherCatV1.00B22,2013-02-09 17:15:00,
2013-02-09 12:20:00,14.7,6.4,30.09,WNW,300,2.0,8.0,69,0.00,,,0.00,WeatherCatV1.00B22,2013-02-09 17:20:00,
2013-02-09 12:25:00,14.6,6.3,30.09,North,355,4.0,5.0,69,0.00,,,0.00,WeatherCatV1.00B22,2013-02-09 17:25:00,
2013-02-09 12:30:00,14.3,6.3,30.09,NW,323,3.0,4.0,70,0.00,,,0.00,WeatherCatV1.00B22,2013-02-09 17:30:00,
2013-02-09 12:35:00,14.3,6.3,30.09,West,276,4.0,7.0,70,0.00,,,0.00,WeatherCatV1.00B22,2013-02-09 17:35:00,
2013-02-09 12:40:00,14.2,5.9,30.09,NW,320,3.0,5.0,69,0.00,,,0.00,WeatherCatV1.00B22,2013-02-09 17:40:00,
2013-02-09 12:45:00,14.5,6.5,30.09,WNW,290,2.0,4.0,70,0.00,,,0.00,WeatherCatV1.00B22,2013-02-09 17:45:00,
2013-02-09 12:50:00,14.8,6.2,30.10,NW,325,6.0,9.0,68,0.00,,,0.00,WeatherCatV1.00B22,2013-02-09 17:50:00,
2013-02-09 12:55:00,15.0,6.7,30.10,North,0,8.0,8.0,69,0.00,,,0.00,WeatherCatV1.00B22,2013-02-09 17:55:00,
2013-02-09 13:00:00,15.5,6.9,30.11,NNW,333,3.0,7.0,68,0.00,,,0.00,WeatherCatV1.00B22,2013-02-09 18:00:00,
2013-02-09 13:05:00,15.9,6.6,30.11,WNW,290,3.0,4.0,66,0.00,,,0.00,WeatherCatV1.00B22,2013-02-09 18:05:00,
2013-02-09 13:10:00,16.1,6.8,30.11,NNW,346,3.0,8.0,66,0.00,,,0.00,WeatherCatV1.00B22,2013-02-09 18:10:00,
2013-02-09 13:15:00,15.8,5.8,30.11,West,267,5.0,7.0,64,0.00,,,0.00,WeatherCatV1.00B22,2013-02-09 18:15:00,
2013-02-09 13:20:00,15.7,5.7,30.12,WSW,242,3.0,10.0,64,0.00,,,0.00,WeatherCatV1.00B22,2013-02-09 18:20:00,
2013-02-09 13:25:00,15.9,5.9,30.11,NW,319,7.0,10.0,64,0.00,,,0.00,WeatherCatV1.00B22,2013-02-09 18:25:00,
2013-02-09 13:30:00,16.2,5.8,30.12,SW,223,7.0,9.0,63,0.00,,,0.00,WeatherCatV1.00B22,2013-02-09 18:30:00,
2013-02-09 13:35:00,16.5,5.4,30.12,SW,235,4.0,10.0,61,0.00,,,0.00,WeatherCatV1.00B22,2013-02-09 18:35:00,
2013-02-09 13:39:00,16.5,5.1,30.12,NNE,15,9.0,10.0,60,0.00,,,0.00,WeatherCatV1.00B22,2013-02-09 18:39:00,
2013-02-09 13:44:00,16.5,5.1,30.12,NNW,338,10.0,12.0,60,0.00,,,0.00,WeatherCatV1.00B22,2013-02-09 18:44:00,
2013-02-09 13:49:00,16.6,4.8,30.12,NNW,333,6.0,6.0,59,0.00,,,0.00,WeatherCatV1.00B22,2013-02-09 18:49:00,
2013-02-09 13:54:00,16.8,4.6,30.12,WSW,248,1.0,14.0,58,0.00,,,0.00,WeatherCatV1.00B22,2013-02-09 18:54:00,
2013-02-09 13:59:00,17.5,5.6,30.12,WNW,292,1.0,4.0,59,0.00,,,0.00,WeatherCatV1.00B22,2013-02-09 18:59:00,
2013-02-09 14:04:00,18.1,5.5,30.12,West,274,3.0,7.0,57,0.00,,,0.00,WeatherCatV1.00B22,2013-02-09 19:04:00,
2013-02-09 14:09:00,18.7,5.6,30.12,NNW,329,4.0,5.0,56,0.00,,,0.00,WeatherCatV1.00B22,2013-02-09 19:09:00,
2013-02-09 14:14:00,19.1,5.6,30.12,North,355,4.0,4.0,55,0.00,,,0.00,WeatherCatV1.00B22,2013-02-09 19:14:00,
2013-02-09 14:19:00,19.2,4.9,30.12,ESE,112,1.0,7.0,53,0.00,,,0.00,WeatherCatV1.00B22,2013-02-09 19:19:00,
2013-02-09 14:24:00,19.3,4.6,30.12,WSW,257,3.0,6.0,52,0.00,,,0.00,WeatherCatV1.00B22,2013-02-09 19:24:00,
2013-02-09 14:29:00,19.2,4.5,30.12,NW,306,1.0,5.0,52,0.00,,,0.00,WeatherCatV1.00B22,2013-02-09 19:29:00,
2013-02-09 14:34:00,19.1,4.4,30.12,WSW,238,4.0,7.0,52,0.00,,,0.00,WeatherCatV1.00B22,2013-02-09 19:34:00,
2013-02-09 14:39:00,19.1,4.0,30.13,ENE,60,4.0,13.0,51,0.00,,,0.00,WeatherCatV1.00B22,2013-02-09 19:39:00,
2013-02-09 14:44:00,19.1,4.4,30.13,West,265,3.0,7.0,52,0.00,,,0.00,WeatherCatV1.00B22,2013-02-09 19:44:00,
2013-02-09 14:49:00,19.2,4.1,30.13,NW,322,1.0,9.0,51,0.00,,,0.00,WeatherCatV1.00B22,2013-02-09 19:49:00,
2013-02-09 14:54:00,19.1,3.6,30.13,WNW,289,1.0,8.0,50,0.00,,,0.00,WeatherCatV1.00B22,2013-02-09 19:54:00,
2013-02-09 14:59:00,19.2,4.1,30.13,West,275,4.0,6.0,51,0.00,,,0.00,WeatherCatV1.00B22,2013-02-09 19:59:00,
2013-02-09 15:04:00,19.2,3.6,30.13,WNW,296,4.0,10.0,50,0.00,,,0.00,WeatherCatV1.00B22,2013-02-09 20:04:00,
2013-02-09 15:09:00,19.2,3.6,30.13,ENE,74,4.0,9.0,50,0.00,,,0.00,WeatherCatV1.00B22,2013-02-09 20:09:00,
2013-02-09 15:14:00,19.2,3.6,30.13,NNW,340,9.0,10.0,50,0.00,,,0.00,WeatherCatV1.00B22,2013-02-09 20:14:00,
2013-02-09 15:19:00,19.3,3.7,30.13,NW,323,2.0,4.0,50,0.00,,,0.00,WeatherCatV1.00B22,2013-02-09 20:19:00,
2013-02-09 15:24:00,19.4,3.4,30.13,NNW,336,1.0,5.0,49,0.00,,,0.00,WeatherCatV1.00B22,2013-02-09 20:24:00,
2013-02-09 15:29:00,19.3,3.3,30.14,WNW,286,2.0,8.0,49,0.00,,,0.00,WeatherCatV1.00B22,2013-02-09 20:29:00,
2013-02-09 15:34:00,19.2,3.2,30.14,NW,317,3.0,7.0,49,0.00,,,0.00,WeatherCatV1.00B22,2013-02-09 20:34:00,
2013-02-09 15:39:00,19.1,3.6,30.14,West,278,4.0,7.0,50,0.00,,,0.00,WeatherCatV1.00B22,2013-02-09 20:39:00,
2013-02-09 15:44:00,19.1,3.6,30.14,West,270,5.0,6.0,50,0.00,,,0.00,WeatherCatV1.00B22,2013-02-09 20:44:00,
2013-02-09 15:49:00,19.0,3.0,30.14,West,261,1.0,6.0,49,0.00,,,0.00,WeatherCatV1.00B22,2013-02-09 20:49:00,
2013-02-09 15:54:00,18.9,2.9,30.14,WNW,303,5.0,9.0,49,0.00,,,0.00,WeatherCatV1.00B22,2013-02-09 20:54:00,
2013-02-09 15:59:00,18.8,3.3,30.15,West,275,3.0,4.0,50,0.00,,,0.00,WeatherCatV1.00B22,2013-02-09 20:59:00,
2013-02-09 16:04:00,18.7,3.2,30.15,SSE,150,1.0,4.0,50,0.00,,,0.00,WeatherCatV1.00B22,2013-02-09 21:04:00,
2013-02-09 16:09:00,18.6,3.5,30.15,West,270,3.0,6.0,51,0.00,,,0.00,WeatherCatV1.00B22,2013-02-09 21:09:00,
2013-02-09 16:14:00,18.6,3.1,30.15,WNW,298,2.0,5.0,50,0.00,,,0.00,WeatherCatV1.00B22,2013-02-09 21:14:00,
2013-02-09 16:19:00,18.5,3.4,30.16,West,263,3.0,4.0,51,0.00,,,0.00,WeatherCatV1.00B22,2013-02-09 21:19:00,
2013-02-09 16:24:00,18.5,3.0,30.16,WNW,302,0.0,2.0,50,0.00,,,0.00,WeatherCatV1.00B22,2013-02-09 21:24:00,
2013-02-09 16:29:00,18.4,2.9,30.17,North,11,3.0,8.0,50,0.00,,,0.00,WeatherCatV1.00B22,2013-02-09 21:29:00,
2013-02-09 16:34:00,18.2,2.7,30.17,NNE,15,1.0,3.0,50,0.00,,,0.00,WeatherCatV1.00B22,2013-02-09 21:34:00,
2013-02-09 16:39:00,18.0,2.5,30.17,West,267,0.0,6.0,50,0.00,,,0.00,WeatherCatV1.00B22,2013-02-09 21:39:00,
2013-02-09 16:44:00,17.8,2.3,30.17,West,273,1.0,5.0,50,0.00,,,0.00,WeatherCatV1.00B22,2013-02-09 21:44:00,
2013-02-09 16:49:00,17.7,2.7,30.17,West,273,0.0,0.0,51,0.00,,,0.00,WeatherCatV1.00B22,2013-02-09 21:49:00,
2013-02-09 16:54:00,17.7,2.7,30.18,West,273,0.0,0.0,51,0.00,,,0.00,WeatherCatV1.00B22,2013-02-09 21:54:00,
2013-02-09 16:59:00,-999.0,-99.9,30.18,North,-999,-999.0,0.0,-999,0.00,,,0.00,WeatherCatV1.00B22,2013-02-09 21:59:00,
2013-02-09 17:04:00,-999.0,-99.9,30.19,North,-999,-999.0,0.0,-999,0.00,,,0.00,WeatherCatV1.00B22,2013-02-09 22:04:00,
2013-02-09 17:09:00,-999.0,-99.9,30.19,North,-999,-999.0,0.0,-999,0.00,,,0.00,WeatherCatV1.00B22,2013-02-09 22:09:00,
2013-02-09 17:14:00,16.8,1.8,30.19,NNW,332,1.0,6.0,51,0.00,,,0.00,WeatherCatV1.00B22,2013-02-09 22:14:00,
2013-02-09 17:19:00,16.7,2.2,30.20,NW,323,3.0,3.0,52,0.00,,,0.00,WeatherCatV1.00B22,2013-02-09 22:19:00,
2013-02-09 17:24:00,16.4,2.3,30.20,West,277,0.0,1.0,53,0.00,,,0.00,WeatherCatV1.00B22,2013-02-09 22:24:00,
2013-02-09 17:29:00,16.2,2.1,30.21,SW,226,1.0,4.0,53,0.00,,,0.00,WeatherCatV1.00B22,2013-02-09 22:29:00,
2013-02-09 17:34:00,16.1,1.6,30.21,West,269,2.0,3.0,52,0.00,,,0.00,WeatherCatV1.00B22,2013-02-09 22:34:00,
2013-02-09 17:39:00,16.0,1.5,30.21,West,260,1.0,1.0,52,0.00,,,0.00,WeatherCatV1.00B22,2013-02-09 22:39:00,
2013-02-09 17:44:00,15.9,1.0,30.22,West,266,0.0,1.0,51,0.00,,,0.00,WeatherCatV1.00B22,2013-02-09 22:44:00,
2013-02-09 17:49:00,15.8,0.9,30.22,West,265,0.0,6.0,51,0.00,,,0.00,WeatherCatV1.00B22,2013-02-09 22:49:00,
2013-02-09 17:54:00,15.5,1.1,30.22,SW,227,2.0,3.0,52,0.00,,,0.00,WeatherCatV1.00B22,2013-02-09 22:54:00,
2013-02-09 17:59:00,15.4,1.0,30.23,West,265,1.0,4.0,52,0.00,,,0.00,WeatherCatV1.00B22,2013-02-09 22:59:00,
2013-02-09 18:04:00,15.3,1.3,30.23,West,265,2.0,2.0,53,0.00,,,0.00,WeatherCatV1.00B22,2013-02-09 23:04:00,
2013-02-09 18:09:00,15.1,1.5,30.24,West,267,1.0,1.0,54,0.00,,,0.00,WeatherCatV1.00B22,2013-02-09 23:09:00,
2013-02-09 18:14:00,14.9,0.9,30.24,WNW,286,3.0,4.0,53,0.00,,,0.00,WeatherCatV1.00B22,2013-02-09 23:14:00,
2013-02-09 18:19:00,14.7,0.7,30.24,WSW,256,2.0,4.0,53,0.00,,,0.00,WeatherCatV1.00B22,2013-02-09 23:19:00,
2013-02-09 18:24:00,14.6,1.0,30.24,WSW,256,2.0,2.0,54,0.00,,,0.00,WeatherCatV1.00B22,2013-02-09 23:24:00,
2013-02-09 18:29:00,14.4,1.2,30.25,West,268,2.0,3.0,55,0.00,,,0.00,WeatherCatV1.00B22,2013-02-09 23:29:00,
2013-02-09 18:34:00,14.0,0.8,30.25,West,268,0.0,0.0,55,0.00,,,0.00,WeatherCatV1.00B22,2013-02-09 23:34:00,
2013-02-09 18:39:00,13.8,0.7,30.26,SSW,205,0.0,1.0,55,0.00,,,0.00,WeatherCatV1.00B22,2013-02-09 23:39:00,
2013-02-09 18:44:00,13.5,0.4,30.26,South,186,0.0,1.0,55,0.00,,,0.00,WeatherCatV1.00B22,2013-02-09 23:44:00,
2013-02-09 18:49:00,13.1,0.8,30.26,South,186,1.0,1.0,57,0.00,,,0.00,WeatherCatV1.00B22,2013-02-09 23:49:00,
2013-02-09 18:54:00,12.8,0.5,30.26,South,186,0.0,2.0,57,0.00,,,0.00,WeatherCatV1.00B22,2013-02-09 23:54:00,
2013-02-09 18:59:00,12.5,0.6,30.27,WSW,252,0.0,3.0,58,0.00,,,0.00,WeatherCatV1.00B22,2013-02-09 23:59:00,
2013-02-09 19:04:00,12.4,0.5,30.27,WSW,252,2.0,4.0,58,0.00,,,0.00,WeatherCatV1.00B22,2013-02-10 00:04:00,
2013-02-09 19:09:00,12.6,0.3,30.27,WSW,252,2.0,3.0,57,0.00,,,0.00,WeatherCatV1.00B22,2013-02-10 00:09:00,
2013-02-09 19:14:00,12.8,0.1,30.27,West,265,2.0,4.0,56,0.00,,,0.00,WeatherCatV1.00B22,2013-02-10 00:14:00,
2013-02-09 19:19:00,13.1,0.0,30.27,WSW,248,2.0,4.0,55,0.00,,,0.00,WeatherCatV1.00B22,2013-02-10 00:19:00,
2013-02-09 19:24:00,13.1,0.0,30.28,WSW,257,2.0,4.0,55,0.00,,,0.00,WeatherCatV1.00B22,2013-02-10 00:24:00,
2013-02-09 19:29:00,12.9,-0.2,30.28,WSW,254,2.0,3.0,55,0.00,,,0.00,WeatherCatV1.00B22,2013-02-10 00:29:00,
2013-02-09 19:34:00,12.8,-0.3,30.28,WSW,251,3.0,4.0,55,0.00,,,0.00,WeatherCatV1.00B22,2013-02-10 00:34:00,
2013-02-09 19:39:00,12.9,-0.2,30.28,WSW,253,3.0,3.0,55,0.00,,,0.00,WeatherCatV1.00B22,2013-02-10 00:39:00,
2013-02-09 19:44:00,13.0,-0.5,30.29,WSW,253,4.0,4.0,54,0.00,,,0.00,WeatherCatV1.00B22,2013-02-10 00:44:00,
2013-02-09 19:49:00,12.9,-0.6,30.29,West,263,3.0,3.0,54,0.00,,,0.00,WeatherCatV1.00B22,2013-02-10 00:49:00,
2013-02-09 19:54:00,12.8,-0.7,30.29,WSW,249,3.0,3.0,54,0.00,,,0.00,WeatherCatV1.00B22,2013-02-10 00:54:00,
2013-02-09 19:59:00,12.8,-0.7,30.30,WSW,250,1.0,4.0,54,0.00,,,0.00,WeatherCatV1.00B22,2013-02-10 00:59:00,
2013-02-09 20:04:00,12.7,-0.8,30.30,WSW,250,2.0,3.0,54,0.00,,,0.00,WeatherCatV1.00B22,2013-02-10 01:04:00,
2013-02-09 20:09:00,12.9,-1.0,30.31,WSW,250,3.0,3.0,53,0.00,,,0.00,WeatherCatV1.00B22,2013-02-10 01:09:00,
2013-02-09 20:14:00,13.1,-1.2,30.31,WSW,254,0.0,3.0,52,0.00,,,0.00,WeatherCatV1.00B22,2013-02-10 01:14:00,
2013-02-09 20:19:00,13.2,-0.7,30.30,WSW,254,0.0,2.0,53,0.00,,,0.00,WeatherCatV1.00B22,2013-02-10 01:19:00,
2013-02-09 20:24:00,13.0,-1.3,30.31,WSW,254,0.0,2.0,52,0.00,,,0.00,WeatherCatV1.00B22,2013-02-10 01:24:00,
2013-02-09 20:29:00,12.7,-1.2,30.31,WSW,254,0.0,2.0,53,0.00,,,0.00,WeatherCatV1.00B22,2013-02-10 01:29:00,
2013-02-09 20:34:00,12.5,-1.3,30.31,WSW,254,1.0,1.0,53,0.00,,,0.00,WeatherCatV1.00B22,2013-02-10 01:34:00,
2013-02-09 20:39:00,12.8,-2.3,30.31,WSW,256,0.0,3.0,50,0.00,,,0.00,WeatherCatV1.00B22,2013-02-10 01:39:00,
2013-02-09 20:44:00,13.5,-2.9,30.31,West,263,2.0,5.0,47,0.00,,,0.00,WeatherCatV1.00B22,2013-02-10 01:44:00,
2013-02-09 20:49:00,13.9,-2.6,30.31,West,273,1.0,2.0,47,0.00,,,0.00,WeatherCatV1.00B22,2013-02-10 01:49:00,
2013-02-09 20:54:00,14.1,-3.3,30.32,WNW,284,0.0,3.0,45,0.00,,,0.00,WeatherCatV1.00B22,2013-02-10 01:54:00,
2013-02-09 20:59:00,14.5,-3.9,30.31,NW,317,2.0,3.0,43,0.00,,,0.00,WeatherCatV1.00B22,2013-02-10 01:59:00,
2013-02-09 21:04:00,14.6,-3.3,30.32,WNW,300,1.0,3.0,44,0.00,,,0.00,WeatherCatV1.00B22,2013-02-10 02:04:00,
2013-02-09 21:09:00,14.6,-3.3,30.32,West,273,0.0,3.0,44,0.00,,,0.00,WeatherCatV1.00B22,2013-02-10 02:09:00,
2013-02-09 21:14:00,14.5,-3.4,30.32,WNW,292,0.0,2.0,44,0.00,,,0.00,WeatherCatV1.00B22,2013-02-10 02:14:00,
2013-02-09 21:19:00,14.3,-3.6,30.32,WNW,283,1.0,3.0,44,0.00,,,0.00,WeatherCatV1.00B22,2013-02-10 02:19:00,
2013-02-09 21:24:00,14.2,-3.2,30.32,WNW,283,2.0,3.0,45,0.00,,,0.00,WeatherCatV1.00B22,2013-02-10 02:24:00,
2013-02-09 21:29:00,13.8,-3.6,30.32,NW,309,1.0,4.0,45,0.00,,,0.00,WeatherCatV1.00B22,2013-02-10 02:29:00,
2013-02-09 21:34:00,13.1,-3.3,30.32,WNW,287,4.0,4.0,47,0.00,,,0.00,WeatherCatV1.00B22,2013-02-10 02:34:00,
2013-02-09 21:39:00,12.9,-3.0,30.32,West,279,0.0,4.0,48,0.00,,,0.00,WeatherCatV1.00B22,2013-02-10 02:39:00,
2013-02-09 21:44:00,12.6,-2.9,30.32,West,279,2.0,3.0,49,0.00,,,0.00,WeatherCatV1.00B22,2013-02-10 02:44:00,
2013-02-09 21:49:00,12.5,-3.0,30.32,West,280,3.0,3.0,49,0.00,,,0.00,WeatherCatV1.00B22,2013-02-10 02:49:00,
2013-02-09 21:54:00,12.5,-3.0,30.32,West,280,1.0,3.0,49,0.00,,,0.00,WeatherCatV1.00B22,2013-02-10 02:54:00,
2013-02-09 21:59:00,12.6,-2.9,30.32,West,280,1.0,3.0,49,0.00,,,0.00,WeatherCatV1.00B22,2013-02-10 02:59:00,
2013-02-09 22:04:00,12.7,-2.8,30.32,West,267,3.0,4.0,49,0.00,,,0.00,WeatherCatV1.00B22,2013-02-10 03:04:00,
2013-02-09 22:09:00,12.8,-2.7,30.32,WSW,250,2.0,4.0,49,0.00,,,0.00,WeatherCatV1.00B22,2013-02-10 03:09:00,
2013-02-09 22:14:00,13.1,-2.4,30.32,WNW,282,1.0,2.0,49,0.00,,,0.00,WeatherCatV1.00B22,2013-02-10 03:14:00,
2013-02-09 22:19:00,13.1,-2.4,30.33,West,261,2.0,3.0,49,0.00,,,0.00,WeatherCatV1.00B22,2013-02-10 03:19:00,
2013-02-09 22:24:00,12.9,-2.6,30.33,SW,231,0.0,3.0,49,0.00,,,0.00,WeatherCatV1.00B22,2013-02-10 03:24:00,
2013-02-09 22:29:00,13.0,-2.5,30.33,SW,215,0.0,0.0,49,0.00,,,0.00,WeatherCatV1.00B22,2013-02-10 03:29:00,
2013-02-09 22:34:00,12.5,-2.6,30.33,SW,216,2.0,3.0,50,0.00,,,0.00,WeatherCatV1.00B22,2013-02-10 03:34:00,
2013-02-09 22:39:00,12.0,-2.2,30.33,SW,216,1.0,1.0,52,0.00,,,0.00,WeatherCatV1.00B22,2013-02-10 03:39:00,
2013-02-09 22:44:00,11.6,-2.6,30.34,SW,216,2.0,2.0,52,0.00,,,0.00,WeatherCatV1.00B22,2013-02-10 03:44:00,
2013-02-09 22:49:00,11.4,-2.4,30.34,SSE,161,0.0,1.0,53,0.00,,,0.00,WeatherCatV1.00B22,2013-02-10 03:49:00,
2013-02-09 22:54:00,11.1,-2.3,30.34,SSE,161,1.0,1.0,54,0.00,,,0.00,WeatherCatV1.00B22,2013-02-10 03:54:00,
2013-02-09 22:59:00,10.8,-2.2,30.34,SSE,161,0.0,1.0,55,0.00,,,0.00,WeatherCatV1.00B22,2013-02-10 03:59:00,
2013-02-09 23:04:00,10.6,-2.0,30.34,SSE,161,0.0,1.0,56,0.00,,,0.00,WeatherCatV1.00B22,2013-02-10 04:04:00,
2013-02-09 23:09:00,10.2,-1.6,30.34,South,190,1.0,2.0,58,0.00,,,0.00,WeatherCatV1.00B22,2013-02-10 04:09:00,
2013-02-09 23:14:00,10.1,-1.3,30.34,South,190,1.0,2.0,59,0.00,,,0.00,WeatherCatV1.00B22,2013-02-10 04:14:00,
2013-02-09 23:19:00,10.1,-1.3,30.34,South,190,0.0,2.0,59,0.00,,,0.00,WeatherCatV1.00B22,2013-02-10 04:19:00,
2013-02-09 23:24:00,10.5,-1.0,30.34,SSW,207,2.0,3.0,59,0.00,,,0.00,WeatherCatV1.00B22,2013-02-10 04:24:00,
2013-02-09 23:29:00,10.8,-1.0,30.34,SW,217,1.0,3.0,58,0.00,,,0.00,WeatherCatV1.00B22,2013-02-10 04:29:00,
2013-02-09 23:34:00,10.7,-1.1,30.34,SW,217,0.0,2.0,58,0.00,,,0.00,WeatherCatV1.00B22,2013-02-10 04:34:00,
2013-02-09 23:39:00,10.6,-0.9,30.34,SW,217,1.0,3.0,59,0.00,,,0.00,WeatherCatV1.00B22,2013-02-10 04:39:00,
2013-02-09 23:44:00,10.6,-0.9,30.34,SW,229,3.0,3.0,59,0.00,,,0.00,WeatherCatV1.00B22,2013-02-10 04:44:00,
2013-02-09 23:49:00,10.7,-1.1,30.35,West,265,1.0,4.0,58,0.00,,,0.00,WeatherCatV1.00B22,2013-02-10 04:49:00,
2013-02-09 23:54:00,10.9,-0.9,30.35,West,271,2.0,3.0,58,0.00,,,0.00,WeatherCatV1.00B22,2013-02-10 04:54:00,
2013-02-09 23:59:00,10.9,-0.9,30.35,West,271,2.0,3.0,58,0.00,,,0.00,WeatherCatV1.00B22,2013-02-10 04:59:00,